Regional Weather Roundup
Issued by NWS Cleveland, OH

Home | Current Version | Previous Version | Text Only | Print | Product List | Glossary Off
Versions: 1 2 3 4 5 6 7 8 9 10 11 12 13 14 15 16 17 18 19 20 21 22 23 24 25 26 27 28 29 30 31 32 33 34 35 36 37 38 39 40 41 42 43 44 45 46 47 48 49 50

000
ASUS41 KCLE 230510
RWRCLE
OHIO REGIONAL WEATHER ROUNDUP
NATIONAL WEATHER SERVICE CLEVELAND, OH
100 AM EDT WED JUL 23 2014

NOTE: "FAIR" INDICATES FEW OR NO CLOUDS BELOW 12,000 FEET WITH NO
SIGNIFICANT WEATHER AND/OR OBSTRUCTIONS TO VISIBILITY.

OHZ001>008-015>018-024>027-034-035-043-044-230600-
   NORTHWEST OHIO

CITY           SKY/WX    TMP DP  RH WIND       PRES   REMARKS
DEFIANCE       CLOUDY    79  67  66 SW5       29.99S
FINDLAY        CLEAR     73  66  78 SW8       30.00R
TOLEDO EXPRESS CLOUDY    78  67  68 SW7       29.98R
TOLEDO EXEC    MOCLDY    77  66  68 SW8       29.98R
LIMA           CLEAR     76  67  73 SW6       30.03R
$$

OHZ009>014-019>023-028>033-038-089-230600-
   NORTHEAST OHIO

CITY           SKY/WX    TMP DP  RH WIND       PRES   REMARKS
CLE-HOPKINS    PTCLDY    76  67  73 SW7       30.02R
CLE-LAKEFRONT  CLEAR     81  66  60 SW12      29.98R
CUY CO. ARPT   NOT AVBL
LORAIN-ELYRIA  CLEAR     75  67  76 SW6       30.01R
ASHTABULA      CLEAR     73  68  84 S5        30.01R
AKRON-CANTON   PTCLDY    76  69  79 SW6       30.03R
WOOSTER        CLEAR     71  68  90 SW3       30.03S
MANSFIELD      CLEAR     73  67  81 SW5       30.04R
YOUNGSTOWN     PTCLDY    75  68  78 SW6       30.03R
$$

OHZ042-051>053-060>062-070>072-077>081-230600-
  SOUTHWEST OHIO

CITY           SKY/WX    TMP DP  RH WIND       PRES   REMARKS
CINC-COVINGTON CLEAR     75  69  81 SW5       30.04F
CINC-LUNKEN    CLEAR     71  69  93 CALM      30.03F
HAMILTON       CLEAR     71  69  93 CALM      30.04S
DAYTON         CLEAR     74  67  78 SW6       30.05R
WRIGHT-PAT AFB CLEAR     72  67  86 CALM      30.03S
DAYTON GENERAL CLEAR     75  68  78 CALM      30.04S
WILMINGTON     CLEAR     71  68  90 CALM      30.04F
$$

OHZ036-037-039>041-045>050-054>059-063>069-073>076-082>088-230600-
  CENTRAL AND SOUTHEAST OHIO

CITY           SKY/WX    TMP DP  RH WIND       PRES   REMARKS
COLUMBUS       PTCLDY    79  70  74 S5        30.02S
OSU AIRPORT    CLEAR     75  69  81 SW3       30.03S
BOLTON FIELD   CLEAR     72  70  93 SW3       30.03F
RICKENBACK AFB CLEAR     75  67  77 S3        30.02S HAZE
NEWARK         CLEAR     72  69  90 CALM      30.02S
MARION         CLEAR     73  67  81 SW7       30.03R
LANCASTER      PTCLDY    71  68  90 CALM      30.04R
ZANESVILLE     CLEAR     73  70  90 CALM      30.03S
NEW PHILLY     CLEAR     72  70  93 SE3       30.03S FOG
$$



USA.gov is the U.S. government's official web portal to all federal, state and local government web resources and services.